This is the latest recevied weather packets stored in our database for station/object EA1GLE. If no packets are shown the sender has not sent any weather packets the latest 10 day(s).
| Time | Temp. | Humidity | Pressure | Rain* | Wind** | Luminosity | Snow |
|---|---|---|---|---|---|---|---|
| 1777609217 | 10.56° C | 99% | 1020.4 hPa | 0 mm | - | 0 W/m² | - |
| 1777607644 | 10.56° C | 98% | 1020.2 hPa | 0 mm | - | 0 W/m² | - |
| 1777606023 | 11.11° C | 97% | 1020.3 hPa | 0 mm | - | 0 W/m² | - |
| 1777603503 | 11.11° C | 97% | 1020.4 hPa | 0 mm | - | 0 W/m² | - |
| 1777600804 | 11.67° C | 96% | 1020.4 hPa | 0 mm | - | 0 W/m² | - |
| 1777596843 | 11.67° C | 96% | 1020.5 hPa | 0 mm | - | 0 W/m² | - |
| 1777592703 | 11.11° C | 98% | 1020.6 hPa | 0 mm | - | 0 W/m² | - |
| 1777590544 | 11.11° C | 98% | 1020.6 hPa | 0 mm | - | 0 W/m² | - |
| 1777589104 | 11.67° C | 97% | 1020.5 hPa | 0 mm | - | 0 W/m² | - |
| 1777588023 | 10.56° C | 97% | 1020.6 hPa | 0 mm | - | 0 W/m² | - |
| 1777587483 | 11.11° C | 97% | 1020.6 hPa | 0 mm | - | 0 W/m² | - |
| 1777586404 | 10° C | 97% | 1020.7 hPa | 0 mm | - | 0 W/m² | - |
| 1777584963 | 10.56° C | 97% | 1020.6 hPa | 0 mm | - | 0 W/m² | - |
| 1777582037 | 11.11° C | 93% | 1020.4 hPa | 0 mm | - | 0 W/m² | - |
| 1777580958 | 11.67° C | 92% | 1020.4 hPa | 0 mm | - | 0 W/m² | - |
| 1777579338 | 12.22° C | 90% | 1020.1 hPa | 0 mm | - | 0 W/m² | - |
| 1777576683 | 13.33° C | 87% | 1019.4 hPa | 0 mm | - | 0 W/m² | - |
| 1777571104 | 16.67° C | 67% | 1019.1 hPa | 0 mm | - | 74 W/m² | - |
| 1777568044 | 16.67° C | 68% | 1019.1 hPa | 0 mm | - | 106 W/m² | - |
| 1777566964 | 16.67° C | 65% | 1018.9 hPa | 0 mm | - | 145 W/m² | - |
| 1777566424 | 16.67° C | 67% | 1019 hPa | 0 mm | - | 143 W/m² | - |
| 1777556164 | 16.67° C | 59% | 1019.1 hPa | 0 mm | - | 802 W/m² | - |
| 1777555083 | 16.67° C | 60% | 1019.1 hPa | 0 mm | - | 375 W/m² | - |
| 1777545364 | 16.11° C | 74% | 1018.8 hPa | 0 mm | - | 303 W/m² | - |
| 1777539244 | 13.33° C | 85% | 1018.5 hPa | 0 mm | - | 403 W/m² | - |
* Rain latest hour (hover to see other rain measurements)
** Current wind speed in m/s (hover to see current wind gust speed)